STARLINK-2205 (47419 NORAD) Tracking and Keplerian Element Data

This shows tracking and keplerian element data for the satellite.

Feedback or suggestion? Click here.




ElementValue
Catalog47419
NameSTARLINK-2205
Epoch Orbit1200
Epoch Day101.91357506
Epoch Year2021
RAAN164.5214
Inclination97.4993
Eccentricity0.0010549
Argument of Perigee14.5311
Mean Anonmoly345.6222
Mean Motion15.14324973
Decay Rate1.304E-05
L11 47419U 21006G 21101.91357506 .00001304 00000-0 74685-4 0 9997
L22 47419 97.4993 164.5214 0010549 14.5311 345.6222 15.14324973 12001

Live tracking and technical data element details for STARLINK-2205 (NORAD 47419). STARLINK-2205 can be tracked NOW for your location showing map with azimuth and elevation plus other details from your city location.

Track the satellite on the map from your city or location and see movement details for azimuth, elevation, latitude, longitude, range, height, and movement on the map or in text.







IsCatalogInMostPopularTable: catalog: 47419, numindb: 17
Update: records affected: 1



GetName: 47419 STARLINK-2205

Hit Count: updated at: Tue, 13 Apr 2021 05:27:27 GMT